Location: Newark
(48.0000°N, 67.0000°E)
Time: 09:10:33
(UTC+00:00)

Vanguard 1 Rocket - Visible Passes

Search period start: 28 February 2020 00:00
Search period end: 09 March 2020 00:00
Orbit: 650 x 4226 km, 34.3° (Epoch: 27 February)

Date Brightness Start Highest point End Pass type
(mag) Time Alt. Az. Time Alt. Az. Time Alt. Az.
29 Feb 9.0 00:14:38 14° SSW 00:14:38 14° SSW 00:16:15 10° S visible
01 Mar 11.2 16:51:27 10° S 16:52:51 11° S 16:52:51 11° S visible
02 Mar 9.2 00:17:36 11° SSW 00:17:36 11° SSW 00:18:14 10° S visible
02 Mar 11.1 15:44:05 10° SSE 15:46:07 11° SSE 15:46:07 11° SSE visible
02 Mar 11.3 18:02:39 10° SSW 18:03:27 11° SSW 18:03:27 11° SSW visible
03 Mar 11.0 16:50:29 10° SSW 16:56:45 18° S 16:56:45 18° S visible
04 Mar 10.9 15:40:01 10° S 15:50:05 17° SSE 15:50:05 17° SSE visible
04 Mar 11.1 18:03:23 10° SW 18:07:25 17° SSW 18:07:25 17° SSW visible
05 Mar 11.1 14:34:53 10° SSE 14:38:19 11° SE 14:41:30 10° SE visible
05 Mar 10.7 16:50:23 10° SSW 17:00:47 24° S 17:00:47 24° S visible
06 Mar 10.7 15:38:37 10° S 15:53:22 22° SSE 15:54:09 22° SE visible
06 Mar 10.9 18:04:27 10° SW 18:11:29 22° SW 18:11:29 22° SW visible
07 Mar 10.9 14:29:11 10° S 14:40:37 16° SE 14:47:31 13° ESE visible
07 Mar 10.5 16:50:49 10° SSW 17:04:51 31° S 17:04:51 31° S visible
07 Mar 11.2 19:20:17 10° WSW 19:22:12 13° WSW 19:22:12 13° WSW visible
08 Mar 10.5 15:38:12 10° SSW 15:55:45 28° SSE 15:58:13 27° SE visible
08 Mar 10.6 18:05:47 10° SW 18:15:33 28° SW 18:15:33 28° SW visible
